Location: Unspecified
(0.0000°N, 0.0000°E)
Time: 08:14:48
(UTC+00:00)

Transit 4A - Pass Details

Date: 07 October 2023
Orbit: 864 x 979 km, 66.8° (Epoch: 05 December)

Event Time Altitude Azimuth Distance (km) Brightness Sun altitude
Rises 18:54:19 0° 5° (N) 3,564 10.8 -16.5°
Reaches altitude 10° 18:57:26 10° 20° (NNE) 2,603 10.0 -17.3°
Enters shadow 19:00:01 19° 43° (NE) 2,015 9.2 -18.0°
Maximum altitude 19:02:00 22° 70° (ENE) 1,843 - -18.5°
Drops below altitude 10° 19:06:30 10° 119° (ESE) 2,552 - -19.6°
Sets 19:09:29 0° 134° (SE) 3,477 - -20.3°
